Preview of NWS' New Version of Forecast
This preview is not operational and should not be used for support decisions.

Regional Weather Roundup (RWR)

Issued by National Weather Service (NWS)

                            
000
ASPQ40 PGUM 240510
RWRPQ 
WEATHER ROUNDUP FOR THE MARIANAS AND MICRONESIA
NATIONAL WEATHER SERVICE TIYAN GU
300 PM CHST MON JUN 24 2019

GUZ001>004-240600-
MARIANA ISLANDS-
  
CITY           SKY/WX    TMP DP  RH WIND       PRES   REMARKS
GUAM AIRPORT   LGT RAIN  84  73  70 E14G26    29.89S HX  91           
ANDERSEN AFB   PTSUNNY   86  75  70 E18       29.89F HX  95           
ROTA AIRPORT   MOSUNNY   84  73  70 E18       29.88F HX  91           
TINIAN AP      MOSUNNY   90  75  62 E16       29.88S HX 100           
SAIPAN AP      MOSUNNY   88  75  66 E17       29.89S HX  97           

$$

PMZ161-240600-
REPUBLIC OF PALAU-
  
CITY           SKY/WX    TMP DP  RH WIND       PRES   REMARKS
KOROR AP       PTSUNNY   86  75  70 SW8       29.81F HX  95           
KOROR WSO      NOT AVBL                                               

$$

PMZ171>174-240600-
FEDERATED STATES OF MICRONESIA-
  
CITY           SKY/WX    TMP DP  RH WIND       PRES   REMARKS
YAP AIRPORT    LGT RAIN  86  81  84 VRB3      29.82F HX 102           
CHUUK AP       CLOUDY    86  81  84 N10       29.80F HX 102           
POHNPEI AP     CLOUDY    86  79  79 E12       29.81S HX  99           
POHNPEI WSO    CLOUDY    84  79  84 E6        29.84S HX  96           
KOSRAE AP      NOT AVBL                                               

$$

PMZ181-240600-
REPUBLIC OF THE MARSHALL ISLANDS-
  
CITY           SKY/WX    TMP DP  RH WIND       PRES   REMARKS
KWAJALEIN AP   LGT RAIN  82  79  89 NE8       29.84S HX  93           
MAJURO AP      NOT AVBL                                               
MAJURO WSO     CLOUDY    81  77  89 NW3       29.83R                  

$$